M I D A S
Marine Information and Data Acquisition System
Tripno 2132 of the Zeeleeuw from 2011-01-21 07:34:33 to 2011-01-21 16:03:05
Back to CruiseResearch ActivitiesStationsMapUnderway DataData graphs

EquipmentUnitsComment
TimeDGPSUTC
LatitudeDGPSDM.mWGS84
LongitudeDGPSDM.mWGS84
TemperatureSBE03/SBE38deg celciusITS90
ConductivitySBE21S/mITS90
SalinitySBE21 Practical Salinity Units
ChlorophylAChelsea fluorimeterg/lCalibrated in Aceton
Missing or incorrect values are displayed as -999
Sea surface data collected by the RV Zeeleeuw from 2011-01-21 07:39:10 to 2011-01-21 16:03:00
                                                                                    Next 1000 lines
Time Latitude Longitude Temperature Conductivity Salinity ChlorophylA
2011-01-21 07:39:19 51°13.661 2°55.958 14.269 -999 -999 -999
2011-01-21 07:39:25 51°13.662 2°55.955 14.4171 -999 -999 -999
2011-01-21 07:39:30 51°13.663 2°55.951 14.4565 -999 -999 -999
2011-01-21 07:39:35 51°13.664 2°55.946 14.4014 -999 -999 -999
2011-01-21 07:39:40 51°13.666 2°55.941 14.4322 -999 -999 -999
2011-01-21 07:39:47 51°13.668 2°55.932 14.3741 -999 -999 -999
2011-01-21 07:39:52 51°13.67 2°55.925 14.429 -999 -999 -999
2011-01-21 07:39:52 51°13.67 2°55.925 14.4288 -999 -999 -999
2011-01-21 07:39:52 51°13.67 2°55.925 14.4345 -999 -999 -999
2011-01-21 07:40:08 51°13.67 2°55.897 14.4418 -999 -999 -999
2011-01-21 07:40:14 51°13.673 2°55.887 14.4476 -999 -999 -999
2011-01-21 07:40:19 51°13.676 2°55.878 14.4479 -999 -999 -999
2011-01-21 07:40:23 51°13.678 2°55.871 14.4592 -999 -999 -999
2011-01-21 07:40:28 51°13.68 2°55.861 14.4647 -999 -999 -999
2011-01-21 07:40:33 51°13.682 2°55.853 14.4713 -999 -999 -999
2011-01-21 07:40:39 51°13.685 2°55.843 14.4747 -999 -999 -999
2011-01-21 07:40:43 51°13.686 2°55.836 14.4737 -999 -999 -999
2011-01-21 07:40:48 51°13.687 2°55.828 14.4694 -999 -999 -999
2011-01-21 07:40:53 51°13.688 2°55.822 14.4673 -999 -999 -999
2011-01-21 07:40:59 51°13.689 2°55.813 14.4624 -999 -999 -999
2011-01-21 07:41:01 51°13.689 2°55.81 14.4627 -999 -999 -999
2011-01-21 07:41:01 51°13.689 2°55.81 14.4683 -999 -999 -999
2011-01-21 07:41:01 51°13.689 2°55.81 14.4601 -999 -999 -999
2011-01-21 07:41:01 51°13.689 2°55.81 14.461 -999 -999 -999
2011-01-21 07:41:01 51°13.689 2°55.81 14.4628 -999 -999 -999
2011-01-21 07:41:28 51°13.692 2°55.774 14.4645 -999 -999 -999
2011-01-21 07:41:34 51°13.692 2°55.765 14.4669 -999 -999 -999
2011-01-21 07:41:38 51°13.693 2°55.76 14.4666 -999 -999 -999
2011-01-21 07:41:43 51°13.694 2°55.755 14.4677 -999 -999 -999
2011-01-21 07:41:48 51°13.694 2°55.75 14.4668 -999 -999 -999
2011-01-21 07:41:54 51°13.694 2°55.746 14.468 -999 -999 -999
2011-01-21 07:41:59 51°13.694 2°55.743 14.4644 -999 -999 -999
2011-01-21 07:42:03 51°13.695 2°55.742 14.4637 -999 -999 -999
2011-01-21 07:42:08 51°13.695 2°55.739 14.4664 -999 -999 -999
2011-01-21 07:42:14 51°13.695 2°55.737 14.4667 -999 -999 -999
2011-01-21 07:42:19 51°13.695 2°55.736 14.4681 -999 -999 -999
2011-01-21 07:42:23 51°13.695 2°55.734 14.4665 -999 -999 -999
2011-01-21 07:42:28 51°13.695 2°55.733 14.4659 -999 -999 -999
2011-01-21 07:42:33 51°13.695 2°55.732 14.4659 -999 -999 -999
2011-01-21 07:42:39 51°13.695 2°55.731 14.4662 -999 -999 -999
2011-01-21 07:42:43 51°13.696 2°55.731 14.4662 -999 -999 -999
2011-01-21 07:42:48 51°13.696 2°55.731 14.4657 -999 -999 -999
2011-01-21 07:42:53 51°13.697 2°55.731 14.4649 -999 -999 -999
2011-01-21 07:42:59 51°13.698 2°55.731 14.4674 -999 -999 -999
2011-01-21 07:43:03 51°13.698 2°55.731 14.4669 -999 -999 -999
2011-01-21 07:43:08 51°13.699 2°55.732 14.4657 -999 -999 -999
2011-01-21 07:43:13 51°13.7 2°55.733 14.4656 -999 -999 -999
2011-01-21 07:43:18 51°13.701 2°55.733 14.4676 -999 -999 -999
2011-01-21 07:43:23 51°13.702 2°55.734 14.4682 -999 -999 -999
2011-01-21 07:43:28 51°13.703 2°55.734 14.4695 -999 -999 -999
2011-01-21 07:43:34 51°13.704 2°55.735 14.4684 -999 -999 -999
2011-01-21 07:43:38 51°13.706 2°55.735 14.4699 -999 -999 -999
2011-01-21 07:43:43 51°13.707 2°55.736 14.4695 -999 -999 -999
2011-01-21 07:43:48 51°13.709 2°55.736 14.4709 -999 -999 -999
2011-01-21 07:43:54 51°13.71 2°55.737 14.4706 -999 -999 -999
2011-01-21 07:43:58 51°13.712 2°55.737 14.4714 -999 -999 -999
2011-01-21 07:44:03 51°13.713 2°55.737 14.4706 -999 -999 -999
2011-01-21 07:44:09 51°13.716 2°55.736 14.4705 -999 -999 -999
2011-01-21 07:44:14 51°13.718 2°55.736 14.4709 -999 -999 -999
2011-01-21 07:44:18 51°13.721 2°55.736 14.4717 -999 -999 -999
2011-01-21 07:44:18 51°13.721 2°55.736 14.4731 -999 -999 -999
2011-01-21 07:44:18 51°13.721 2°55.736 14.4725 -999 -999 -999
2011-01-21 07:44:18 51°13.721 2°55.736 14.4744 -999 -999 -999
2011-01-21 07:44:18 51°13.721 2°55.736 14.4736 -999 -999 -999
2011-01-21 07:44:43 51°13.73 2°55.731 14.4773 -999 -999 -999
2011-01-21 07:44:48 51°13.733 2°55.729 14.4812 -999 -999 -999
2011-01-21 07:44:54 51°13.736 2°55.727 14.4941 -999 -999 -999
2011-01-21 07:44:59 51°13.74 2°55.724 14.5007 -999 -999 -999
2011-01-21 07:45:03 51°13.742 2°55.721 14.5008 -999 -999 -999
2011-01-21 07:45:08 51°13.746 2°55.717 14.4908 -999 -999 -999
2011-01-21 07:45:13 51°13.75 2°55.714 14.4801 -999 -999 -999
2011-01-21 07:45:18 51°13.755 2°55.711 14.4662 -999 -999 -999
2011-01-21 07:45:23 51°13.759 2°55.706 14.4622 -999 -999 -999
2011-01-21 07:45:28 51°13.763 2°55.701 14.461 -999 -999 -999
2011-01-21 07:45:33 51°13.768 2°55.695 14.4605 -999 -999 -999
2011-01-21 07:45:38 51°13.773 2°55.689 14.4539 -999 -999 -999
2011-01-21 07:45:41 51°13.777 2°55.685 14.4362 -999 -999 -999
2011-01-21 07:45:41 51°13.777 2°55.685 14.4173 -999 -999 -999
2011-01-21 07:45:53 51°13.792 2°55.663 14.4025 -999 -999 -999
2011-01-21 07:45:57 51°13.797 2°55.657 14.3604 -999 -999 -999
2011-01-21 07:46:03 51°13.806 2°55.65 14.3436 -999 -999 -999
2011-01-21 07:46:09 51°13.815 2°55.642 14.3075 -999 -999 -999
2011-01-21 07:46:13 51°13.822 2°55.636 14.2923 -999 -999 -999
2011-01-21 07:46:18 51°13.831 2°55.63 14.2891 -999 -999 -999
2011-01-21 07:46:22 51°13.839 2°55.624 14.2844 -999 -999 -999
2011-01-21 07:46:28 51°13.851 2°55.615 14.3026 -999 -999 -999
2011-01-21 07:46:33 51°13.86 2°55.607 14.2985 -999 -999 -999
2011-01-21 07:46:38 51°13.87 2°55.6 14.3149 -999 -999 -999
2011-01-21 07:46:43 51°13.88 2°55.592 14.3215 -999 -999 -999
2011-01-21 07:46:47 51°13.888 2°55.586 14.3218 -999 -999 -999
2011-01-21 07:46:52 51°13.898 2°55.578 14.2926 -999 -999 -999
2011-01-21 07:46:52 51°13.898 2°55.578 14.2845 -999 -999 -999
2011-01-21 07:46:52 51°13.898 2°55.578 14.277 -999 -999 -999
2011-01-21 07:46:52 51°13.898 2°55.578 14.3021 -999 -999 -999
2011-01-21 07:46:52 51°13.898 2°55.578 14.3107 -999 -999 -999
2011-01-21 07:46:52 51°13.898 2°55.578 14.2744 -999 -999 -999
2011-01-21 07:46:52 51°13.898 2°55.578 14.248 -999 -999 -999
2011-01-21 07:46:52 51°13.898 2°55.578 14.339 -999 -999 -999
2011-01-21 07:46:52 51°13.898 2°55.578 14.3015 -999 -999 -999
2011-01-21 07:46:52 51°13.898 2°55.578 14.3391 -999 -999 -999
2011-01-21 07:46:52 51°13.898 2°55.578 14.3413 -999 -999 -999
2011-01-21 07:46:52 51°13.898 2°55.578 14.3541 -999 -999 -999
2011-01-21 07:47:54 51°13.898 2°55.578 14.3311 -999 -999 -999
2011-01-21 07:47:58 51°13.898 2°55.578 14.3449 -999 -999 -999
2011-01-21 07:48:02 51°13.898 2°55.578 14.349 -999 -999 -999
2011-01-21 07:48:08 51°14.072 2°55.456 14.3418 -999 -999 -999
2011-01-21 07:48:14 51°14.084 2°55.437 14.3358 -999 -999 -999
2011-01-21 07:48:19 51°14.097 2°55.433 14.2994 -999 -999 -999
2011-01-21 07:48:23 51°14.106 2°55.426 14.2489 -999 -999 -999
2011-01-21 07:48:28 51°14.118 2°55.416 14.3336 -999 -999 -999
2011-01-21 07:48:34 51°14.132 2°55.404 14.3221 -999 -999 -999
2011-01-21 07:48:38 51°14.142 2°55.397 14.3307 -999 -999 -999
2011-01-21 07:48:43 51°14.154 2°55.388 14.3333 -999 -999 -999
2011-01-21 07:48:49 51°14.169 2°55.376 14.3192 -999 -999 -999
2011-01-21 07:48:54 51°14.181 2°55.366 14.3058 -999 -999 -999
2011-01-21 07:48:59 51°14.193 2°55.356 14.3314 -999 -999 -999
2011-01-21 07:49:03 51°14.203 2°55.348 14.3451 -999 -999 -999
2011-01-21 07:49:08 51°14.215 2°55.337 14.3354 -999 -999 -999
2011-01-21 07:49:14 51°14.229 2°55.325 14.3381 -999 -999 -999
2011-01-21 07:49:19 51°14.241 2°55.314 14.3498 -999 -999 -999
2011-01-21 07:49:23 51°14.251 2°55.305 14.3256 -999 -999 -999
2011-01-21 07:49:28 51°14.262 2°55.294 14.3367 -999 -999 -999
2011-01-21 07:49:33 51°14.274 2°55.283 14.2964 -999 -999 -999
2011-01-21 07:49:39 51°14.289 2°55.269 14.2726 -999 -999 -999
2011-01-21 07:49:43 51°14.298 2°55.26 14.3141 -999 -999 -999
2011-01-21 07:49:48 51°14.31 2°55.248 14.2782 -999 -999 -999
2011-01-21 07:49:53 51°14.322 2°55.237 14.3257 -999 -999 -999
2011-01-21 07:49:58 51°14.334 2°55.225 14.3315 -999 -999 -999
2011-01-21 07:50:03 51°14.347 2°55.213 14.3506 -999 -999 -999
2011-01-21 07:50:08 51°14.359 2°55.2 14.2927 -999 -999 -999
2011-01-21 07:50:13 51°14.372 2°55.187 14.2874 -999 -999 -999
2011-01-21 07:50:18 51°14.384 2°55.175 14.317 -999 -999 -999
2011-01-21 07:50:23 51°14.397 2°55.162 14.2737 -999 -999 -999
2011-01-21 07:50:28 51°14.409 2°55.149 14.2873 -999 -999 -999
2011-01-21 07:50:34 51°14.424 2°55.133 14.2299 -999 -999 -999
2011-01-21 07:50:38 51°14.435 2°55.122 14.2108 -999 -999 -999
2011-01-21 07:50:43 51°14.447 2°55.109 14.2542 -999 -999 -999
2011-01-21 07:50:48 51°14.46 2°55.095 14.2024 -999 -999 -999
2011-01-21 07:50:53 51°14.473 2°55.081 14.2013 -999 -999 -999
2011-01-21 07:50:58 51°14.487 2°55.067 14.137 -999 -999 -999
2011-01-21 07:51:03 51°14.5 2°55.053 14.132 -999 -999 -999
2011-01-21 07:51:08 51°14.513 2°55.038 14.1913 -999 -999 -999
2011-01-21 07:51:13 51°14.526 2°55.023 14.245 -999 -999 -999
2011-01-21 07:51:18 51°14.537 2°55.005 14.261 -999 -999 -999
2011-01-21 07:51:23 51°14.548 2°54.985 14.1267 -999 -999 -999
2011-01-21 07:51:27 51°14.555 2°54.967 14.2015 -999 -999 -999
2011-01-21 07:51:32 51°14.565 2°54.945 14.1349 -999 -999 -999
2011-01-21 07:51:37 51°14.574 2°54.922 14.2139 -999 -999 -999
2011-01-21 07:51:42 51°14.583 2°54.898 14.1153 -999 -999 -999
2011-01-21 07:51:47 51°14.591 2°54.872 14.0302 -999 -999 -999
2011-01-21 07:51:51 51°14.597 2°54.851 14.1655 -999 -999 -999
2011-01-21 07:51:56 51°14.603 2°54.824 14.0902 -999 -999 -999
2011-01-21 07:52:01 51°14.609 2°54.796 14.1037 -999 -999 -999
2011-01-21 07:52:06 51°14.614 2°54.768 14.021 -999 -999 -999
2011-01-21 07:52:11 51°14.62 2°54.74 14.0271 -999 -999 -999
2011-01-21 07:52:15 51°14.624 2°54.717 14.0808 -999 -999 -999
2011-01-21 07:52:21 51°14.63 2°54.682 14.0727 -999 -999 -999
2011-01-21 07:52:26 51°14.635 2°54.654 14.0327 -999 -999 -999
2011-01-21 07:52:31 51°14.641 2°54.625 14.0897 -999 -999 -999
2011-01-21 07:52:35 51°14.645 2°54.602 14.0302 -999 -999 -999
2011-01-21 07:52:40 51°14.65 2°54.574 14.042 -999 -999 -999
2011-01-21 07:52:45 51°14.655 2°54.546 14.05 -999 -999 -999
2011-01-21 07:52:50 51°14.661 2°54.519 14.0707 -999 -999 -999
2011-01-21 07:52:55 51°14.667 2°54.491 14.0494 -999 -999 -999
2011-01-21 07:52:59 51°14.671 2°54.468 14.0936 -999 -999 -999
2011-01-21 07:53:05 51°14.678 2°54.434 14.0714 -999 -999 -999
2011-01-21 07:53:10 51°14.683 2°54.406 14.0257 -999 -999 -999
2011-01-21 07:53:15 51°14.689 2°54.378 14.0263 -999 -999 -999
2011-01-21 07:53:19 51°14.694 2°54.355 14.0799 -999 -999 -999
2011-01-21 07:53:25 51°14.701 2°54.322 14.07 -999 -999 -999
2011-01-21 07:53:30 51°14.707 2°54.293 14.0388 -999 -999 -999
2011-01-21 07:53:35 51°14.714 2°54.265 13.9849 -999 -999 -999
2011-01-21 07:53:39 51°14.719 2°54.242 14.0721 -999 -999 -999
2011-01-21 07:53:45 51°14.726 2°54.208 14.0472 -999 -999 -999
2011-01-21 07:53:50 51°14.732 2°54.18 14.0085 -999 -999 -999
2011-01-21 07:53:55 51°14.739 2°54.152 13.9939 -999 -999 -999
2011-01-21 07:54:00 51°14.745 2°54.123 14.0272 -999 -999 -999
2011-01-21 07:54:05 51°14.75 2°54.094 13.9571 -999 -999 -999
2011-01-21 07:54:10 51°14.756 2°54.066 14.0232 -999 -999 -999
2011-01-21 07:54:15 51°14.762 2°54.037 13.978 -999 -999 -999
2011-01-21 07:54:20 51°14.768 2°54.009 14.0326 -999 -999 -999
2011-01-21 07:54:25 51°14.773 2°53.98 13.9588 -999 -999 -999
2011-01-21 07:54:30 51°14.779 2°53.952 13.9585 -999 -999 -999
2011-01-21 07:54:35 51°14.785 2°53.924 13.9704 -999 -999 -999
2011-01-21 07:54:40 51°14.791 2°53.897 13.9774 -999 -999 -999
2011-01-21 07:54:45 51°14.798 2°53.869 13.9911 -999 -999 -999
2011-01-21 07:54:50 51°14.804 2°53.841 13.9992 -999 -999 -999
2011-01-21 07:54:55 51°14.811 2°53.814 13.9861 -999 -999 -999
2011-01-21 07:54:59 51°14.816 2°53.792 13.9917 -999 -999 -999
2011-01-21 07:55:05 51°14.823 2°53.759 13.9836 -999 -999 -999
2011-01-21 07:55:10 51°14.829 2°53.731 13.9897 -999 -999 -999
2011-01-21 07:55:15 51°14.836 2°53.703 13.9448 -999 -999 -999
2011-01-21 07:55:19 51°14.841 2°53.68 13.9091 -999 -999 -999
2011-01-21 07:55:25 51°14.848 2°53.646 14.0074 -999 -999 -999
2011-01-21 07:55:30 51°14.854 2°53.618 13.9698 -999 -999 -999
2011-01-21 07:55:35 51°14.86 2°53.59 13.9968 -999 -999 -999
2011-01-21 07:55:39 51°14.865 2°53.568 13.9818 -999 -999 -999
2011-01-21 07:55:45 51°14.872 2°53.534 13.9768 -999 -999 -999
2011-01-21 07:55:50 51°14.878 2°53.505 13.9283 -999 -999 -999
2011-01-21 07:55:55 51°14.883 2°53.476 13.9705 -999 -999 -999
2011-01-21 07:55:59 51°14.887 2°53.453 13.9933 -999 -999 -999
2011-01-21 07:56:04 51°14.892 2°53.424 13.9982 -999 -999 -999
2011-01-21 07:56:10 51°14.899 2°53.389 13.9571 -999 -999 -999
2011-01-21 07:56:15 51°14.904 2°53.36 13.961 -999 -999 -999
2011-01-21 07:56:19 51°14.909 2°53.337 13.9243 -999 -999 -999
2011-01-21 07:56:24 51°14.915 2°53.309 13.9881 -999 -999 -999
2011-01-21 07:56:29 51°14.921 2°53.28 13.9233 -999 -999 -999
2011-01-21 07:56:34 51°14.927 2°53.252 13.9384 -999 -999 -999
2011-01-21 07:56:39 51°14.933 2°53.223 13.9758 -999 -999 -999
2011-01-21 07:56:44 51°14.939 2°53.195 13.9696 -999 -999 -999
2011-01-21 07:56:49 51°14.945 2°53.166 13.9384 -999 -999 -999
2011-01-21 07:56:54 51°14.951 2°53.138 13.9773 -999 -999 -999
2011-01-21 07:57:00 51°14.958 2°53.103 13.9871 -999 -999 -999
2011-01-21 07:57:05 51°14.963 2°53.073 13.9985 -999 -999 -999
2011-01-21 07:57:10 51°14.967 2°53.044 13.9644 -999 -999 -999
2011-01-21 07:57:15 51°14.972 2°53.014 13.9021 -999 -999 -999
2011-01-21 07:57:20 51°14.976 2°52.985 13.8945 -999 -999 -999
2011-01-21 07:57:25 51°14.98 2°52.955 13.9188 -999 -999 -999
2011-01-21 07:57:30 51°14.985 2°52.925 13.916 -999 -999 -999
2011-01-21 07:57:35 51°14.99 2°52.896 13.9579 -999 -999 -999
2011-01-21 07:57:40 51°14.997 2°52.868 13.9282 -999 -999 -999
2011-01-21 07:57:45 51°15.003 2°52.84 13.9399 -999 -999 -999
2011-01-21 07:57:50 51°15.011 2°52.812 13.9514 -999 -999 -999
2011-01-21 07:57:55 51°15.019 2°52.785 13.9088 -999 -999 -999
2011-01-21 07:58:00 51°15.028 2°52.759 13.9709 -999 -999 -999
2011-01-21 07:58:04 51°15.034 2°52.737 13.978 -999 -999 -999
2011-01-21 07:58:10 51°15.044 2°52.705 13.9808 -999 -999 -999
2011-01-21 07:58:15 51°15.052 2°52.677 13.9859 -999 -999 -999
2011-01-21 07:58:20 51°15.059 2°52.65 13.9703 -999 -999 -999
2011-01-21 07:58:24 51°15.065 2°52.627 13.9726 -999 -999 -999
2011-01-21 07:58:30 51°15.073 2°52.593 13.9689 -999 -999 -999
2011-01-21 07:58:35 51°15.079 2°52.565 13.9673 -999 -999 -999
2011-01-21 07:58:40 51°15.085 2°52.536 13.9437 -999 -999 -999
2011-01-21 07:58:45 51°15.09 2°52.507 13.9424 -999 -999 -999
2011-01-21 07:58:50 51°15.096 2°52.478 13.9656 -999 -999 -999
2011-01-21 07:58:55 51°15.102 2°52.449 13.9511 -999 -999 -999
2011-01-21 07:59:00 51°15.107 2°52.42 13.9476 -999 -999 -999
2011-01-21 07:59:04 51°15.112 2°52.397 13.9039 -999 -999 -999
2011-01-21 07:59:10 51°15.12 2°52.363 13.9498 -999 -999 -999
2011-01-21 07:59:15 51°15.126 2°52.334 13.9665 -999 -999 -999
2011-01-21 07:59:20 51°15.133 2°52.306 13.9805 -999 -999 -999
2011-01-21 07:59:25 51°15.139 2°52.278 13.9199 -999 -999 -999
2011-01-21 07:59:30 51°15.147 2°52.25 13.9434 -999 -999 -999
2011-01-21 07:59:35 51°15.153 2°52.222 13.9516 -999 -999 -999
2011-01-21 07:59:40 51°15.16 2°52.194 13.9271 -999 -999 -999
2011-01-21 07:59:45 51°15.167 2°52.165 13.974 -999 -999 -999
2011-01-21 07:59:50 51°15.174 2°52.137 13.9391 -999 -999 -999
2011-01-21 07:59:55 51°15.18 2°52.108 13.9606 -999 -999 -999
2011-01-21 08:00:00 51°15.187 2°52.08 13.9478 -999 -999 -999
2011-01-21 08:00:05 51°15.194 2°52.052 13.9561 -999 -999 -999
2011-01-21 08:00:10 51°15.201 2°52.023 13.9634 -999 -999 -999
2011-01-21 08:00:15 51°15.207 2°51.995 13.9563 -999 -999 -999
2011-01-21 08:00:20 51°15.213 2°51.966 13.9258 -999 -999 -999
2011-01-21 08:00:24 51°15.219 2°51.943 13.9162 -999 -999 -999
2011-01-21 08:00:30 51°15.226 2°51.909 13.976 -999 -999 -999
2011-01-21 08:00:35 51°15.232 2°51.88 13.9738 -999 -999 -999
2011-01-21 08:00:40 51°15.238 2°51.851 13.9785 -999 -999 -999
2011-01-21 08:00:44 51°15.242 2°51.828 13.9726 -999 -999 -999
2011-01-21 08:00:50 51°15.247 2°51.792 13.939 -999 -999 -999
2011-01-21 08:00:55 51°15.251 2°51.762 13.9295 -999 -999 -999
2011-01-21 08:01:00 51°15.254 2°51.731 13.9708 -999 -999 -999
2011-01-21 08:01:04 51°15.256 2°51.707 13.9477 -999 -999 -999
2011-01-21 08:01:10 51°15.26 2°51.67 13.9457 -999 -999 -999
2011-01-21 08:01:15 51°15.262 2°51.639 13.9667 -999 -999 -999
2011-01-21 08:01:20 51°15.265 2°51.608 13.9251 -999 -999 -999
2011-01-21 08:01:25 51°15.268 2°51.577 13.9674 -999 -999 -999
2011-01-21 08:01:30 51°15.271 2°51.546 13.9558 -999 -999 -999
2011-01-21 08:01:35 51°15.275 2°51.516 13.9422 -999 -999 -999
2011-01-21 08:01:40 51°15.278 2°51.485 13.987 -999 -999 -999
2011-01-21 08:01:44 51°15.28 2°51.46 13.9763 -999 -999 -999
2011-01-21 08:01:50 51°15.282 2°51.423 13.9863 -999 -999 -999
2011-01-21 08:01:55 51°15.283 2°51.391 13.9468 -999 -999 -999
2011-01-21 08:02:00 51°15.283 2°51.36 13.9649 -999 -999 -999
2011-01-21 08:02:04 51°15.283 2°51.335 13.9446 -999 -999 -999
2011-01-21 08:02:10 51°15.282 2°51.296 13.9778 -999 -999 -999
2011-01-21 08:02:15 51°15.28 2°51.264 13.985 -999 -999 -999
2011-01-21 08:02:20 51°15.279 2°51.232 13.9737 -999 -999 -999
2011-01-21 08:02:24 51°15.277 2°51.207 13.9625 -999 -999 -999
2011-01-21 08:02:30 51°15.275 2°51.168 13.9655 -999 -999 -999
2011-01-21 08:02:35 51°15.273 2°51.136 13.939 -999 -999 -999
2011-01-21 08:02:40 51°15.27 2°51.104 13.9673 -999 -999 -999
2011-01-21 08:02:44 51°15.269 2°51.078 13.9503 -999 -999 -999
2011-01-21 08:02:50 51°15.266 2°51.039 13.9711 -999 -999 -999
2011-01-21 08:02:55 51°15.265 2°51.007 13.9721 -999 -999 -999
2011-01-21 08:03:00 51°15.263 2°50.975 13.9862 -999 -999 -999
2011-01-21 08:03:04 51°15.262 2°50.949 13.9764 -999 -999 -999
2011-01-21 08:03:10 51°15.261 2°50.91 13.985 -999 -999 -999
2011-01-21 08:03:15 51°15.259 2°50.877 13.9925 -999 -999 -999
2011-01-21 08:03:20 51°15.258 2°50.845 13.9876 -999 -999 -999
2011-01-21 08:03:24 51°15.257 2°50.819 13.991 -999 -999 -999
2011-01-21 08:03:30 51°15.256 2°50.78 13.9915 -999 -999 -999
2011-01-21 08:03:35 51°15.255 2°50.747 13.9819 -999 -999 -999
2011-01-21 08:03:40 51°15.253 2°50.714 13.9898 -999 -999 -999
2011-01-21 08:03:44 51°15.252 2°50.688 13.974 -999 -999 -999
2011-01-21 08:03:50 51°15.25 2°50.649 13.9928 -999 -999 -999
2011-01-21 08:03:55 51°15.249 2°50.616 13.9744 -999 -999 -999
2011-01-21 08:04:00 51°15.248 2°50.583 13.9482 -999 -999 -999
2011-01-21 08:04:04 51°15.246 2°50.557 13.9789 -999 -999 -999
2011-01-21 08:04:10 51°15.245 2°50.518 13.9653 -999 -999 -999
2011-01-21 08:04:15 51°15.243 2°50.485 13.9611 -999 -999 -999
2011-01-21 08:04:20 51°15.242 2°50.453 13.9552 -999 -999 -999
2011-01-21 08:04:24 51°15.241 2°50.427 13.9945 -999 -999 -999
2011-01-21 08:04:30 51°15.239 2°50.387 13.9981 -999 -999 -999
2011-01-21 08:04:35 51°15.237 2°50.355 13.999 -999 -999 -999
2011-01-21 08:04:40 51°15.235 2°50.322 14.0067 -999 -999 -999
2011-01-21 08:04:44 51°15.232 2°50.296 13.9976 -999 -999 -999
2011-01-21 08:04:50 51°15.228 2°50.257 14.0193 -999 -999 -999
2011-01-21 08:04:55 51°15.224 2°50.224 14.0026 -999 -999 -999
2011-01-21 08:05:00 51°15.219 2°50.192 13.9811 -999 -999 -999
2011-01-21 08:05:04 51°15.215 2°50.166 13.9983 -999 -999 -999
2011-01-21 08:05:10 51°15.209 2°50.128 13.9749 -999 -999 -999
2011-01-21 08:05:15 51°15.204 2°50.095 13.9799 -999 -999 -999
2011-01-21 08:05:20 51°15.199 2°50.063 13.9907 -999 -999 -999
2011-01-21 08:05:25 51°15.194 2°50.03 13.9955 -999 -999 -999
2011-01-21 08:05:30 51°15.19 2°49.998 13.9506 -999 -999 -999
2011-01-21 08:05:35 51°15.185 2°49.965 13.982 -999 -999 -999
2011-01-21 08:05:40 51°15.182 2°49.932 13.9544 -999 -999 -999
2011-01-21 08:05:44 51°15.178 2°49.907 13.9902 -999 -999 -999
2011-01-21 08:05:50 51°15.173 2°49.867 13.9834 -999 -999 -999
2011-01-21 08:05:55 51°15.168 2°49.835 13.9947 -999 -999 -999
2011-01-21 08:06:00 51°15.164 2°49.803 13.9993 -999 -999 -999
2011-01-21 08:06:05 51°15.159 2°49.77 13.9535 -999 -999 -999
2011-01-21 08:06:10 51°15.154 2°49.738 13.9935 -999 -999 -999
2011-01-21 08:06:15 51°15.15 2°49.705 14.0011 -999 -999 -999
2011-01-21 08:06:20 51°15.145 2°49.673 13.9876 -999 -999 -999
2011-01-21 08:06:25 51°15.14 2°49.641 13.9962 -999 -999 -999
2011-01-21 08:06:30 51°15.135 2°49.608 13.9988 -999 -999 -999
2011-01-21 08:06:35 51°15.131 2°49.575 13.9701 -999 -999 -999
2011-01-21 08:06:40 51°15.126 2°49.543 13.9789 -999 -999 -999
2011-01-21 08:06:44 51°15.123 2°49.517 14.0035 -999 -999 -999
2011-01-21 08:06:50 51°15.118 2°49.478 13.9959 -999 -999 -999
2011-01-21 08:06:55 51°15.114 2°49.445 14.012 -999 -999 -999
2011-01-21 08:07:00 51°15.11 2°49.412 13.9758 -999 -999 -999
2011-01-21 08:07:04 51°15.106 2°49.386 13.9955 -999 -999 -999
2011-01-21 08:07:10 51°15.102 2°49.347 14.0146 -999 -999 -999
2011-01-21 08:07:15 51°15.097 2°49.315 13.9984 -999 -999 -999
2011-01-21 08:07:20 51°15.093 2°49.282 13.9949 -999 -999 -999
2011-01-21 08:07:25 51°15.089 2°49.25 13.9949 -999 -999 -999
2011-01-21 08:07:29 51°15.085 2°49.224 14.0214 -999 -999 -999
2011-01-21 08:07:35 51°15.08 2°49.185 14.0171 -999 -999 -999
2011-01-21 08:07:40 51°15.076 2°49.152 14.0068 -999 -999 -999
2011-01-21 08:07:44 51°15.072 2°49.126 14.0201 -999 -999 -999
2011-01-21 08:07:50 51°15.067 2°49.088 14.0002 -999 -999 -999
2011-01-21 08:07:55 51°15.063 2°49.055 14.0077 -999 -999 -999
2011-01-21 08:08:00 51°15.058 2°49.023 14.0053 -999 -999 -999
2011-01-21 08:08:05 51°15.054 2°48.99 14.0026 -999 -999 -999
2011-01-21 08:08:10 51°15.05 2°48.958 13.9863 -999 -999 -999
2011-01-21 08:08:15 51°15.045 2°48.926 14.0151 -999 -999 -999
2011-01-21 08:08:20 51°15.041 2°48.893 14.0029 -999 -999 -999
2011-01-21 08:08:24 51°15.038 2°48.867 14.0191 -999 -999 -999
2011-01-21 08:08:30 51°15.032 2°48.828 14.0077 -999 -999 -999
2011-01-21 08:08:35 51°15.028 2°48.796 13.9816 -999 -999 -999
2011-01-21 08:08:40 51°15.025 2°48.763 14.0167 -999 -999 -999
2011-01-21 08:08:44 51°15.023 2°48.737 13.9886 -999 -999 -999
2011-01-21 08:08:50 51°15.02 2°48.698 14.0225 -999 -999 -999
2011-01-21 08:08:55 51°15.018 2°48.665 14.0285 -999 -999 -999
2011-01-21 08:09:00 51°15.017 2°48.632 14.0005 -999 -999 -999
2011-01-21 08:09:04 51°15.016 2°48.606 13.9961 -999 -999 -999
2011-01-21 08:09:10 51°15.015 2°48.567 14.028 -999 -999 -999
2011-01-21 08:09:15 51°15.015 2°48.534 14.0227 -999 -999 -999
2011-01-21 08:09:20 51°15.014 2°48.501 14.0241 -999 -999 -999
2011-01-21 08:09:24 51°15.014 2°48.475 14.0303 -999 -999 -999
2011-01-21 08:09:29 51°15.013 2°48.443 14.0225 -999 -999 -999
2011-01-21 08:09:35 51°15.012 2°48.403 14.0342 -999 -999 -999
2011-01-21 08:09:40 51°15.012 2°48.371 14.0242 -999 -999 -999
2011-01-21 08:09:44 51°15.011 2°48.344 14.0366 -999 -999 -999
2011-01-21 08:09:50 51°15.01 2°48.305 14.0314 -999 -999 -999
2011-01-21 08:09:55 51°15.009 2°48.273 14.031 -999 -999 -999
2011-01-21 08:10:00 51°15.009 2°48.24 14.0228 -999 -999 -999
2011-01-21 08:10:05 51°15.008 2°48.207 14.0388 -999 -999 -999
2011-01-21 08:10:10 51°15.008 2°48.175 14.0052 -999 -999 -999
2011-01-21 08:10:15 51°15.007 2°48.143 14.0429 -999 -999 -999
2011-01-21 08:10:20 51°15.007 2°48.111 14.0262 -999 -999 -999
2011-01-21 08:10:24 51°15.006 2°48.085 14.0387 -999 -999 -999
2011-01-21 08:10:30 51°15.006 2°48.047 14.0189 -999 -999 -999
2011-01-21 08:10:35 51°15.005 2°48.015 14.0395 -999 -999 -999
2011-01-21 08:10:40 51°15.004 2°47.984 14.0379 -999 -999 -999
2011-01-21 08:10:45 51°15.003 2°47.952 13.9985 -999 -999 -999
2011-01-21 08:10:50 51°15.003 2°47.921 14.0384 -999 -999 -999
2011-01-21 08:10:55 51°15.002 2°47.889 14.0255 -999 -999 -999
2011-01-21 08:11:00 51°15.001 2°47.857 14.0431 -999 -999 -999
2011-01-21 08:11:04 51°15.001 2°47.832 14.0122 -999 -999 -999
2011-01-21 08:11:10 51°15 2°47.795 14.0148 -999 -999 -999
2011-01-21 08:11:15 51°14.999 2°47.763 14.0216 -999 -999 -999
2011-01-21 08:11:20 51°14.998 2°47.732 14.0416 -999 -999 -999
2011-01-21 08:11:24 51°14.997 2°47.707 14.0364 -999 -999 -999
2011-01-21 08:11:30 51°14.997 2°47.669 14.041 -999 -999 -999
2011-01-21 08:11:35 51°14.996 2°47.638 14.0327 -999 -999 -999
2011-01-21 08:11:40 51°14.995 2°47.607 14.0432 -999 -999 -999
2011-01-21 08:11:44 51°14.995 2°47.583 14.0249 -999 -999 -999
2011-01-21 08:11:50 51°14.994 2°47.546 14.0311 -999 -999 -999
2011-01-21 08:11:55 51°14.993 2°47.515 14.0226 -999 -999 -999
2011-01-21 08:12:00 51°14.992 2°47.484 14.0293 -999 -999 -999
2011-01-21 08:12:05 51°14.992 2°47.453 14.0214 -999 -999 -999
2011-01-21 08:12:10 51°14.991 2°47.422 14.0384 -999 -999 -999
2011-01-21 08:12:15 51°14.991 2°47.392 14.0263 -999 -999 -999
2011-01-21 08:12:20 51°14.99 2°47.361 14.0533 -999 -999 -999
2011-01-21 08:12:24 51°14.989 2°47.337 14.026 -999 -999 -999
2011-01-21 08:12:30 51°14.988 2°47.3 14.0304 -999 -999 -999
2011-01-21 08:12:35 51°14.988 2°47.27 14.0288 -999 -999 -999
2011-01-21 08:12:40 51°14.987 2°47.24 14.0458 -999 -999 -999
2011-01-21 08:12:44 51°14.986 2°47.215 14.0624 -999 -999 -999
2011-01-21 08:12:50 51°14.984 2°47.179 14.0356 -999 -999 -999
2011-01-21 08:12:55 51°14.982 2°47.149 14.0576 -999 -999 -999
2011-01-21 08:13:00 51°14.98 2°47.119 14.0634 -999 -999 -999
2011-01-21 08:13:05 51°14.977 2°47.089 14.028 -999 -999 -999
2011-01-21 08:13:10 51°14.974 2°47.06 14.0356 -999 -999 -999
2011-01-21 08:13:15 51°14.971 2°47.03 14.0689 -999 -999 -999
2011-01-21 08:13:20 51°14.967 2°47 14.0436 -999 -999 -999
2011-01-21 08:13:24 51°14.965 2°46.976 14.0261 -999 -999 -999
2011-01-21 08:13:30 51°14.96 2°46.941 14.0312 -999 -999 -999
2011-01-21 08:13:35 51°14.957 2°46.911 14.0546 -999 -999 -999
2011-01-21 08:13:40 51°14.953 2°46.882 14.0251 -999 -999 -999
2011-01-21 08:13:44 51°14.951 2°46.858 14.0489 -999 -999 -999
2011-01-21 08:13:50 51°14.947 2°46.822 14.0385 -999 -999 -999
2011-01-21 08:13:55 51°14.945 2°46.792 14.0381 -999 -999 -999
2011-01-21 08:14:00 51°14.943 2°46.762 14.0163 -999 -999 -999
2011-01-21 08:14:04 51°14.942 2°46.738 14.055 -999 -999 -999
2011-01-21 08:14:10 51°14.94 2°46.702 14.0454 -999 -999 -999
2011-01-21 08:14:15 51°14.94 2°46.672 14.0388 -999 -999 -999
2011-01-21 08:14:20 51°14.939 2°46.642 14.0592 -999 -999 -999
2011-01-21 08:14:24 51°14.938 2°46.618 14.0538 -999 -999 -999
2011-01-21 08:14:30 51°14.936 2°46.582 14.0544 -999 -999 -999
2011-01-21 08:14:35 51°14.934 2°46.552 14.037 -999 -999 -999
2011-01-21 08:14:40 51°14.932 2°46.522 14.0643 -999 -999 -999
2011-01-21 08:14:45 51°14.929 2°46.492 14.0605 -999 -999 -999
2011-01-21 08:14:50 51°14.926 2°46.462 14.0498 -999 -999 -999
2011-01-21 08:14:55 51°14.921 2°46.432 14.0816 -999 -999 -999
2011-01-21 08:15:00 51°14.916 2°46.403 14.068 -999 -999 -999
2011-01-21 08:15:05 51°14.91 2°46.373 14.0525 -999 -999 -999
2011-01-21 08:15:10 51°14.905 2°46.344 14.0489 -999 -999 -999
2011-01-21 08:15:15 51°14.899 2°46.314 14.0331 -999 -999 -999
2011-01-21 08:15:20 51°14.893 2°46.285 14.0472 -999 -999 -999
2011-01-21 08:15:24 51°14.889 2°46.262 14.0408 -999 -999 -999
2011-01-21 08:15:30 51°14.882 2°46.226 14.0479 -999 -999 -999
2011-01-21 08:15:35 51°14.878 2°46.196 14.0577 -999 -999 -999
2011-01-21 08:15:40 51°14.874 2°46.166 14.0481 -999 -999 -999
2011-01-21 08:15:44 51°14.871 2°46.142 14.0672 -999 -999 -999
2011-01-21 08:15:50 51°14.868 2°46.105 14.054 -999 -999 -999
2011-01-21 08:15:55 51°14.865 2°46.074 14.0722 -999 -999 -999
2011-01-21 08:16:00 51°14.863 2°46.044 14.0592 -999 -999 -999
2011-01-21 08:16:04 51°14.86 2°46.019 14.0834 -999 -999 -999
2011-01-21 08:16:10 51°14.858 2°45.981 14.0681 -999 -999 -999
2011-01-21 08:16:15 51°14.856 2°45.95 14.0688 -999 -999 -999
2011-01-21 08:16:20 51°14.852 2°45.919 14.0731 -999 -999 -999
2011-01-21 08:16:24 51°14.85 2°45.894 14.0739 -999 -999 -999
2011-01-21 08:16:30 51°14.844 2°45.858 14.0815 -999 -999 -999
2011-01-21 08:16:35 51°14.839 2°45.827 14.0956 -999 -999 -999
2011-01-21 08:16:40 51°14.833 2°45.797 14.076 -999 -999 -999
2011-01-21 08:16:45 51°14.826 2°45.767 14.0788 -999 -999 -999
2011-01-21 08:16:50 51°14.819 2°45.738 14.0736 -999 -999 -999
2011-01-21 08:16:55 51°14.812 2°45.708 14.0841 -999 -999 -999
2011-01-21 08:17:00 51°14.804 2°45.679 14.0733 -999 -999 -999
2011-01-21 08:17:04 51°14.798 2°45.655 14.0701 -999 -999 -999
2011-01-21 08:17:10 51°14.789 2°45.62 14.0836 -999 -999 -999
2011-01-21 08:17:15 51°14.781 2°45.591 14.077 -999 -999 -999
2011-01-21 08:17:20 51°14.773 2°45.562 14.096 -999 -999 -999
2011-01-21 08:17:25 51°14.766 2°45.532 14.0506 -999 -999 -999
2011-01-21 08:17:30 51°14.758 2°45.503 14.0807 -999 -999 -999
2011-01-21 08:17:35 51°14.75 2°45.474 14.0839 -999 -999 -999
2011-01-21 08:17:40 51°14.742 2°45.445 14.0809 -999 -999 -999
2011-01-21 08:17:45 51°14.734 2°45.416 14.0971 -999 -999 -999
2011-01-21 08:17:50 51°14.727 2°45.387 14.0786 -999 -999 -999
2011-01-21 08:17:55 51°14.719 2°45.358 14.0958 -999 -999 -999
2011-01-21 08:18:00 51°14.712 2°45.328 14.0869 -999 -999 -999
2011-01-21 08:18:04 51°14.705 2°45.305 14.0805 -999 -999 -999
2011-01-21 08:18:10 51°14.696 2°45.27 14.0904 -999 -999 -999
2011-01-21 08:18:15 51°14.688 2°45.24 14.0963 -999 -999 -999
2011-01-21 08:18:20 51°14.681 2°45.211 14.099 -999 -999 -999
2011-01-21 08:18:24 51°14.674 2°45.188 14.0953 -999 -999 -999
2011-01-21 08:18:30 51°14.665 2°45.153 14.1039 -999 -999 -999
2011-01-21 08:18:35 51°14.657 2°45.123 14.0976 -999 -999 -999
2011-01-21 08:18:40 51°14.649 2°45.095 14.0843 -999 -999 -999
2011-01-21 08:18:44 51°14.642 2°45.071 14.0945 -999 -999 -999
2011-01-21 08:18:50 51°14.632 2°45.036 14.1051 -999 -999 -999
2011-01-21 08:18:55 51°14.624 2°45.008 14.0942 -999 -999 -999
2011-01-21 08:19:00 51°14.615 2°44.979 14.0829 -999 -999 -999
2011-01-21 08:19:04 51°14.608 2°44.956 14.113 -999 -999 -999
2011-01-21 08:19:10 51°14.597 2°44.922 14.1149 -999 -999 -999
2011-01-21 08:19:15 51°14.588 2°44.894 14.1033 -999 -999 -999
2011-01-21 08:19:20 51°14.579 2°44.865 14.1148 -999 -999 -999
2011-01-21 08:19:24 51°14.572 2°44.842 14.1183 -999 -999 -999
2011-01-21 08:19:30 51°14.561 2°44.808 14.1091 -999 -999 -999
2011-01-21 08:19:35 51°14.553 2°44.779 14.1198 -999 -999 -999
2011-01-21 08:19:40 51°14.544 2°44.751 14.0843 -999 -999 -999
2011-01-21 08:19:44 51°14.537 2°44.727 14.1262 -999 -999 -999
2011-01-21 08:19:50 51°14.527 2°44.693 14.0952 -999 -999 -999
2011-01-21 08:19:55 51°14.518 2°44.664 14.1375 -999 -999 -999
2011-01-21 08:20:00 51°14.51 2°44.635 14.11 -999 -999 -999
2011-01-21 08:20:05 51°14.499 2°44.608 14.1277 -999 -999 -999
2011-01-21 08:20:10 51°14.49 2°44.58 14.1028 -999 -999 -999
2011-01-21 08:20:15 51°14.478 2°44.554 14.1201 -999 -999 -999
2011-01-21 08:20:20 51°14.467 2°44.527 14.1168 -999 -999 -999
2011-01-21 08:20:24 51°14.458 2°44.506 14.1365 -999 -999 -999
2011-01-21 08:20:30 51°14.444 2°44.475 14.1118 -999 -999 -999
2011-01-21 08:20:35 51°14.432 2°44.449 14.1282 -999 -999 -999
2011-01-21 08:20:40 51°14.42 2°44.423 14.122 -999 -999 -999
2011-01-21 08:20:44 51°14.41 2°44.402 14.1395 -999 -999 -999
2011-01-21 08:20:50 51°14.396 2°44.371 14.106 -999 -999 -999
2011-01-21 08:20:55 51°14.383 2°44.346 14.1403 -999 -999 -999
2011-01-21 08:21:00 51°14.37 2°44.321 14.1158 -999 -999 -999
2011-01-21 08:21:04 51°14.36 2°44.302 14.1404 -999 -999 -999
2011-01-21 08:21:10 51°14.345 2°44.271 14.1002 -999 -999 -999
2011-01-21 08:21:14 51°14.334 2°44.252 14.1245 -999 -999 -999
2011-01-21 08:21:20 51°14.319 2°44.222 14.1125 -999 -999 -999
2011-01-21 08:21:25 51°14.306 2°44.198 14.1248 -999 -999 -999
2011-01-21 08:21:30 51°14.294 2°44.173 14.1284 -999 -999 -999
2011-01-21 08:21:35 51°14.28 2°44.149 14.1297 -999 -999 -999
2011-01-21 08:21:40 51°14.268 2°44.123 14.1289 -999 -999 -999
2011-01-21 08:21:44 51°14.258 2°44.104 14.1338 -999 -999 -999
2011-01-21 08:21:50 51°14.243 2°44.074 14.1465 -999 -999 -999
2011-01-21 08:21:55 51°14.229 2°44.05 14.1177 -999 -999 -999
2011-01-21 08:22:00 51°14.217 2°44.025 14.141 -999 -999 -999
2011-01-21 08:22:05 51°14.204 2°44 14.1259 -999 -999 -999
2011-01-21 08:22:10 51°14.191 2°43.975 14.1422 -999 -999 -999
2011-01-21 08:22:15 51°14.178 2°43.95 14.1547 -999 -999 -999
2011-01-21 08:22:20 51°14.165 2°43.926 14.1311 -999 -999 -999
2011-01-21 08:22:25 51°14.152 2°43.902 14.1368 -999 -999 -999
2011-01-21 08:22:30 51°14.139 2°43.877 14.1568 -999 -999 -999
2011-01-21 08:22:35 51°14.126 2°43.853 14.1483 -999 -999 -999
2011-01-21 08:22:40 51°14.113 2°43.829 14.1494 -999 -999 -999
2011-01-21 08:22:44 51°14.103 2°43.809 14.1396 -999 -999 -999
2011-01-21 08:22:49 51°14.09 2°43.784 14.1486 -999 -999 -999
2011-01-21 08:22:55 51°14.075 2°43.754 14.1674 -999 -999 -999
2011-01-21 08:23:00 51°14.062 2°43.73 14.1454 -999 -999 -999
2011-01-21 08:23:04 51°14.052 2°43.711 14.1536 -999 -999 -999
2011-01-21 08:23:10 51°14.036 2°43.68 14.1449 -999 -999 -999
2011-01-21 08:23:15 51°14.023 2°43.655 14.1539 -999 -999 -999
2011-01-21 08:23:20 51°14.01 2°43.631 14.1571 -999 -999 -999
2011-01-21 08:23:25 51°13.997 2°43.606 14.167 -999 -999 -999
2011-01-21 08:23:30 51°13.985 2°43.582 14.1527 -999 -999 -999
2011-01-21 08:23:35 51°13.972 2°43.557 14.1537 -999 -999 -999
2011-01-21 08:23:40 51°13.958 2°43.533 14.1595 -999 -999 -999
2011-01-21 08:23:44 51°13.948 2°43.513 14.1688 -999 -999 -999
2011-01-21 08:23:50 51°13.933 2°43.483 14.1408 -999 -999 -999
2011-01-21 08:23:55 51°13.92 2°43.459 14.1779 -999 -999 -999
2011-01-21 08:24:00 51°13.907 2°43.435 14.153 -999 -999 -999
2011-01-21 08:24:05 51°13.893 2°43.411 14.156 -999 -999 -999
2011-01-21 08:24:10 51°13.88 2°43.386 14.1757 -999 -999 -999
2011-01-21 08:24:15 51°13.867 2°43.362 14.1564 -999 -999 -999
2011-01-21 08:24:20 51°13.855 2°43.337 14.1763 -999 -999 -999
2011-01-21 08:24:25 51°13.842 2°43.313 14.1804 -999 -999 -999
2011-01-21 08:24:30 51°13.828 2°43.288 14.1721 -999 -999 -999
2011-01-21 08:24:35 51°13.816 2°43.264 14.1797 -999 -999 -999
2011-01-21 08:24:40 51°13.802 2°43.239 14.1847 -999 -999 -999
2011-01-21 08:24:44 51°13.792 2°43.22 14.1703 -999 -999 -999
2011-01-21 08:24:50 51°13.776 2°43.191 14.1892 -999 -999 -999
2011-01-21 08:24:55 51°13.763 2°43.166 14.1551 -999 -999 -999
2011-01-21 08:25:00 51°13.75 2°43.141 14.1825 -999 -999 -999
2011-01-21 08:25:04 51°13.74 2°43.121 14.1647 -999 -999 -999
2011-01-21 08:25:10 51°13.725 2°43.091 14.1881 -999 -999 -999
2011-01-21 08:25:15 51°13.712 2°43.067 14.1845 -999 -999 -999
2011-01-21 08:25:20 51°13.699 2°43.042 14.1923 -999 -999 -999
2011-01-21 08:25:25 51°13.686 2°43.017 14.1584 -999 -999 -999
2011-01-21 08:25:30 51°13.673 2°42.992 14.1969 -999 -999 -999
2011-01-21 08:25:35 51°13.661 2°42.968 14.1869 -999 -999 -999
2011-01-21 08:25:40 51°13.648 2°42.944 14.2011 -999 -999 -999
2011-01-21 08:25:44 51°13.638 2°42.924 14.1551 -999 -999 -999
2011-01-21 08:25:50 51°13.622 2°42.894 14.1883 -999 -999 -999
2011-01-21 08:25:55 51°13.61 2°42.868 14.1825 -999 -999 -999
2011-01-21 08:26:00 51°13.597 2°42.844 14.2 -999 -999 -999
2011-01-21 08:26:05 51°13.585 2°42.818 14.1748 -999 -999 -999
2011-01-21 08:26:10 51°13.573 2°42.792 14.1766 -999 -999 -999
2011-01-21 08:26:15 51°13.561 2°42.766 14.2126 -999 -999 -999
2011-01-21 08:26:20 51°13.549 2°42.739 14.1883 -999 -999 -999
2011-01-21 08:26:25 51°13.538 2°42.713 14.2023 -999 -999 -999
2011-01-21 08:26:30 51°13.526 2°42.687 14.1811 -999 -999 -999
2011-01-21 08:26:35 51°13.515 2°42.66 14.2043 -999 -999 -999
2011-01-21 08:26:40 51°13.503 2°42.633 14.1897 -999 -999 -999
2011-01-21 08:26:44 51°13.494 2°42.612 14.2146 -999 -999 -999
2011-01-21 08:26:50 51°13.481 2°42.581 14.194 -999 -999 -999
2011-01-21 08:26:55 51°13.469 2°42.554 14.2194 -999 -999 -999
2011-01-21 08:27:00 51°13.458 2°42.527 14.1948 -999 -999 -999
2011-01-21 08:27:04 51°13.448 2°42.507 14.2131 -999 -999 -999
2011-01-21 08:27:10 51°13.434 2°42.475 14.2234 -999 -999 -999
2011-01-21 08:27:15 51°13.422 2°42.449 14.2143 -999 -999 -999
2011-01-21 08:27:20 51°13.41 2°42.423 14.2097 -999 -999 -999
2011-01-21 08:27:24 51°13.401 2°42.402 14.2061 -999 -999 -999
2011-01-21 08:27:30 51°13.387 2°42.369 14.2231 -999 -999 -999
2011-01-21 08:27:35 51°13.375 2°42.343 14.2161 -999 -999 -999
2011-01-21 08:27:40 51°13.364 2°42.316 14.1951 -999 -999 -999
2011-01-21 08:27:44 51°13.354 2°42.295 14.2283 -999 -999 -999
2011-01-21 08:27:50 51°13.341 2°42.263 14.2062 -999 -999 -999
2011-01-21 08:27:55 51°13.329 2°42.236 14.2303 -999 -999 -999
2011-01-21 08:28:00 51°13.317 2°42.21 14.1962 -999 -999 -999
2011-01-21 08:28:04 51°13.308 2°42.189 14.2198 -999 -999 -999
2011-01-21 08:28:10 51°13.294 2°42.156 14.2047 -999 -999 -999
2011-01-21 08:28:15 51°13.282 2°42.13 14.2288 -999 -999 -999
2011-01-21 08:28:20 51°13.271 2°42.103 14.2202 -999 -999 -999
2011-01-21 08:28:24 51°13.261 2°42.082 14.2311 -999 -999 -999
2011-01-21 08:28:30 51°13.247 2°42.05 14.2324 -999 -999 -999
2011-01-21 08:28:35 51°13.235 2°42.023 14.2145 -999 -999 -999
2011-01-21 08:28:40 51°13.223 2°41.997 14.2133 -999 -999 -999
2011-01-21 08:28:45 51°13.212 2°41.97 14.2072 -999 -999 -999
2011-01-21 08:28:50 51°13.2 2°41.943 14.2218 -999 -999 -999
2011-01-21 08:28:55 51°13.188 2°41.916 14.2351 -999 -999 -999
2011-01-21 08:29:00 51°13.176 2°41.89 14.2381 -999 -999 -999
2011-01-21 08:29:04 51°13.167 2°41.869 14.2276 -999 -999 -999
2011-01-21 08:29:10 51°13.153 2°41.837 14.2511 -999 -999 -999
2011-01-21 08:29:15 51°13.141 2°41.811 14.189 -999 -999 -999
2011-01-21 08:29:20 51°13.128 2°41.785 14.2407 -999 -999 -999
2011-01-21 08:29:24 51°13.119 2°41.763 14.2177 -999 -999 -999
2011-01-21 08:29:30 51°13.104 2°41.731 14.2463 -999 -999 -999
2011-01-21 08:29:35 51°13.093 2°41.704 14.2193 -999 -999 -999
2011-01-21 08:29:40 51°13.081 2°41.678 14.2289 -999 -999 -999
2011-01-21 08:29:44 51°13.072 2°41.656 14.2104 -999 -999 -999
2011-01-21 08:29:50 51°13.058 2°41.623 14.2348 -999 -999 -999
2011-01-21 08:29:55 51°13.046 2°41.597 14.2515 -999 -999 -999
2011-01-21 08:30:00 51°13.034 2°41.571 14.255 -999 -999 -999
2011-01-21 08:30:05 51°13.022 2°41.544 14.2212 -999 -999 -999
2011-01-21 08:30:10 51°13.01 2°41.518 14.2428 -999 -999 -999
2011-01-21 08:30:15 51°12.998 2°41.491 14.248 -999 -999 -999
2011-01-21 08:30:20 51°12.986 2°41.465 14.2489 -999 -999 -999
2011-01-21 08:30:24 51°12.976 2°41.444 14.2434 -999 -999 -999
2011-01-21 08:30:30 51°12.962 2°41.412 14.2534 -999 -999 -999
2011-01-21 08:30:35 51°12.95 2°41.385 14.2498 -999 -999 -999
2011-01-21 08:30:40 51°12.938 2°41.358 14.2436 -999 -999 -999
2011-01-21 08:30:45 51°12.926 2°41.331 14.2586 -999 -999 -999
2011-01-21 08:30:50 51°12.915 2°41.304 14.2498 -999 -999 -999
2011-01-21 08:30:55 51°12.904 2°41.277 14.2506 -999 -999 -999
2011-01-21 08:31:00 51°12.892 2°41.25 14.2323 -999 -999 -999
2011-01-21 08:31:04 51°12.882 2°41.228 14.2531 -999 -999 -999
2011-01-21 08:31:10 51°12.869 2°41.196 14.2357 -999 -999 -999
2011-01-21 08:31:15 51°12.856 2°41.17 14.2665 -999 -999 -999
2011-01-21 08:31:20 51°12.845 2°41.143 14.2577 -999 -999 -999
2011-01-21 08:31:24 51°12.835 2°41.123 14.24 -999 -999 -999
2011-01-21 08:31:30 51°12.82 2°41.091 14.2597 -999 -999 -999
2011-01-21 08:31:35 51°12.808 2°41.065 14.2552 -999 -999 -999
2011-01-21 08:31:40 51°12.797 2°41.038 14.2611 -999 -999 -999
2011-01-21 08:31:44 51°12.787 2°41.017 14.2489 -999 -999 -999
2011-01-21 08:31:50 51°12.773 2°40.985 14.271 -999 -999 -999
2011-01-21 08:31:55 51°12.761 2°40.958 14.263 -999 -999 -999
2011-01-21 08:32:00 51°12.75 2°40.932 14.2603 -999 -999 -999
2011-01-21 08:32:05 51°12.738 2°40.905 14.2823 -999 -999 -999
2011-01-21 08:32:09 51°12.729 2°40.884 14.2476 -999 -999 -999
2011-01-21 08:32:15 51°12.714 2°40.852 14.2698 -999 -999 -999
2011-01-21 08:32:20 51°12.702 2°40.825 14.2669 -999 -999 -999
2011-01-21 08:32:24 51°12.693 2°40.804 14.2822 -999 -999 -999
2011-01-21 08:32:30 51°12.678 2°40.773 14.2664 -999 -999 -999
2011-01-21 08:32:35 51°12.666 2°40.746 14.2569 -999 -999 -999
2011-01-21 08:32:40 51°12.655 2°40.72 14.2697 -999 -999 -999
2011-01-21 08:32:45 51°12.643 2°40.694 14.28 -999 -999 -999
2011-01-21 08:32:50 51°12.631 2°40.667 14.2768 -999 -999 -999
2011-01-21 08:32:55 51°12.619 2°40.641 14.2594 -999 -999 -999
2011-01-21 08:33:00 51°12.607 2°40.615 14.2902 -999 -999 -999
2011-01-21 08:33:04 51°12.598 2°40.594 14.2755 -999 -999 -999
2011-01-21 08:33:10 51°12.584 2°40.563 14.2757 -999 -999 -999
2011-01-21 08:33:15 51°12.572 2°40.536 14.2495 -999 -999 -999
2011-01-21 08:33:20 51°12.56 2°40.51 14.2813 -999 -999 -999
2011-01-21 08:33:25 51°12.548 2°40.484 14.261 -999 -999 -999
2011-01-21 08:33:30 51°12.536 2°40.458 14.3102 -999 -999 -999
2011-01-21 08:33:35 51°12.524 2°40.432 14.2563 -999 -999 -999
2011-01-21 08:33:40 51°12.512 2°40.406 14.2877 -999 -999 -999
2011-01-21 08:33:44 51°12.503 2°40.384 14.282 -999 -999 -999
2011-01-21 08:33:50 51°12.488 2°40.354 14.2755 -999 -999 -999
2011-01-21 08:33:55 51°12.476 2°40.328 14.2844 -999 -999 -999
2011-01-21 08:34:00 51°12.464 2°40.302 14.2889 -999 -999 -999
2011-01-21 08:34:05 51°12.453 2°40.276 14.2936 -999 -999 -999
2011-01-21 08:34:09 51°12.443 2°40.255 14.3044 -999 -999 -999
2011-01-21 08:34:15 51°12.429 2°40.224 14.2738 -999 -999 -999
2011-01-21 08:34:20 51°12.417 2°40.197 14.3073 -999 -999 -999
2011-01-21 08:34:24 51°12.408 2°40.176 14.2783 -999 -999 -999
2011-01-21 08:34:30 51°12.395 2°40.144 14.3047 -999 -999 -999
2011-01-21 08:34:35 51°12.383 2°40.118 14.2681 -999 -999 -999
2011-01-21 08:34:40 51°12.372 2°40.092 14.2972 -999 -999 -999
2011-01-21 08:34:44 51°12.363 2°40.07 14.2872 -999 -999 -999
2011-01-21 08:34:50 51°12.348 2°40.039 14.2947 -999 -999 -999
2011-01-21 08:34:55 51°12.337 2°40.014 14.3062 -999 -999 -999
2011-01-21 08:35:00 51°12.325 2°39.987 14.3023 -999 -999 -999
2011-01-21 08:35:04 51°12.316 2°39.967 14.2906 -999 -999 -999
2011-01-21 08:35:10 51°12.301 2°39.936 14.3131 -999 -999 -999
2011-01-21 08:35:15 51°12.29 2°39.91 14.3135 -999 -999 -999
2011-01-21 08:35:20 51°12.278 2°39.884 14.3208 -999 -999 -999
2011-01-21 08:35:25 51°12.266 2°39.857 14.2904 -999 -999 -999
2011-01-21 08:35:30 51°12.255 2°39.831 14.2993 -999 -999 -999
2011-01-21 08:35:35 51°12.243 2°39.805 14.2921 -999 -999 -999
2011-01-21 08:35:40 51°12.231 2°39.779 14.3227 -999 -999 -999
2011-01-21 08:35:45 51°12.219 2°39.753 14.2751 -999 -999 -999
2011-01-21 08:35:50 51°12.208 2°39.727 14.3209 -999 -999 -999
2011-01-21 08:35:55 51°12.196 2°39.701 14.3056 -999 -999 -999
2011-01-21 08:36:00 51°12.184 2°39.675 14.3003 -999 -999 -999
2011-01-21 08:36:04 51°12.175 2°39.654 14.307 -999 -999 -999
2011-01-21 08:36:10 51°12.161 2°39.623 14.313 -999 -999 -999
2011-01-21 08:36:15 51°12.149 2°39.597 14.3066 -999 -999 -999
2011-01-21 08:36:20 51°12.138 2°39.571 14.3123 -999 -999 -999
2011-01-21 08:36:24 51°12.129 2°39.551 14.2968 -999 -999 -999
2011-01-21 08:36:30 51°12.114 2°39.519 14.3259 -999 -999 -999
2011-01-21 08:36:35 51°12.103 2°39.493 14.3255 -999 -999 -999
2011-01-21 08:36:40 51°12.092 2°39.467 14.3203 -999 -999 -999
2011-01-21 08:36:45 51°12.08 2°39.441 14.3186 -999 -999 -999
2011-01-21 08:36:50 51°12.069 2°39.414 14.3071 -999 -999 -999
2011-01-21 08:36:55 51°12.057 2°39.388 14.3471 -999 -999 -999
2011-01-21 08:37:00 51°12.046 2°39.361 14.3242 -999 -999 -999
2011-01-21 08:37:04 51°12.036 2°39.341 14.3114 -999 -999 -999
2011-01-21 08:37:10 51°12.023 2°39.309 14.295 -999 -999 -999
2011-01-21 08:37:15 51°12.011 2°39.283 14.3332 -999 -999 -999
2011-01-21 08:37:20 51°12 2°39.257 14.3136 -999 -999 -999
2011-01-21 08:37:25 51°11.988 2°39.231 14.3217 -999 -999 -999
2011-01-21 08:37:30 51°11.976 2°39.205 14.3328 -999 -999 -999
2011-01-21 08:37:35 51°11.965 2°39.178 14.3143 -999 -999 -999
2011-01-21 08:37:40 51°11.953 2°39.152 14.3387 -999 -999 -999
2011-01-21 08:37:45 51°11.941 2°39.126 14.3539 -999 -999 -999
2011-01-21 08:37:50 51°11.93 2°39.1 14.3089 -999 -999 -999
2011-01-21 08:37:55 51°11.918 2°39.074 14.3563 -999 -999 -999
2011-01-21 08:38:00 51°11.907 2°39.047 14.3065 -999 -999 -999
2011-01-21 08:38:05 51°11.895 2°39.021 14.3475 -999 -999 -999
2011-01-21 08:38:10 51°11.883 2°38.995 14.3455 -999 -999 -999
2011-01-21 08:38:15 51°11.872 2°38.969 14.3234 -999 -999 -999
2011-01-21 08:38:20 51°11.86 2°38.943 14.3291 -999 -999 -999
2011-01-21 08:38:24 51°11.85 2°38.922 14.3473 -999 -999 -999
2011-01-21 08:38:30 51°11.836 2°38.892 14.3609 -999 -999 -999
2011-01-21 08:38:35 51°11.824 2°38.866 14.3368 -999 -999 -999
2011-01-21 08:38:40 51°11.811 2°38.842 14.359 -999 -999 -999
2011-01-21 08:38:45 51°11.799 2°38.817 14.3404 -999 -999 -999
2011-01-21 08:38:50 51°11.787 2°38.792 14.33 -999 -999 -999
2011-01-21 08:38:55 51°11.775 2°38.766 14.3381 -999 -999 -999
2011-01-21 08:39:00 51°11.763 2°38.74 14.365 -999 -999 -999
2011-01-21 08:39:04 51°11.754 2°38.72 14.3376 -999 -999 -999
2011-01-21 08:39:10 51°11.74 2°38.689 14.3626 -999 -999 -999
2011-01-21 08:39:15 51°11.729 2°38.663 14.356 -999 -999 -999
2011-01-21 08:39:20 51°11.718 2°38.636 14.3596 -999 -999 -999
2011-01-21 08:39:25 51°11.707 2°38.61 14.3536 -999 -999 -999
2011-01-21 08:39:30 51°11.696 2°38.583 14.3764 -999 -999 -999
2011-01-21 08:39:35 51°11.684 2°38.557 14.3831 -999 -999 -999
2011-01-21 08:39:40 51°11.673 2°38.532 14.3453 -999 -999 -999
2011-01-21 08:39:44 51°11.663 2°38.511 14.3568 -999 -999 -999
2011-01-21 08:39:50 51°11.649 2°38.48 14.3336 -999 -999 -999
2011-01-21 08:39:55 51°11.637 2°38.455 14.3885 -999 -999 -999
2011-01-21 08:40:00 51°11.626 2°38.429 14.3448 -999 -999 -999
2011-01-21 08:40:04 51°11.616 2°38.409 14.3495 -999 -999 -999
2011-01-21 08:40:10 51°11.602 2°38.378 14.3618 -999 -999 -999
2011-01-21 08:40:15 51°11.59 2°38.352 14.3446 -999 -999 -999
2011-01-21 08:40:20 51°11.579 2°38.326 14.368 -999 -999 -999
2011-01-21 08:40:24 51°11.57 2°38.305 14.3699 -999 -999 -999
2011-01-21 08:40:30 51°11.556 2°38.274 14.3388 -999 -999 -999
2011-01-21 08:40:35 51°11.545 2°38.248 14.379 -999 -999 -999
2011-01-21 08:40:40 51°11.534 2°38.222 14.3709 -999 -999 -999
2011-01-21 08:40:44 51°11.524 2°38.201 14.3686 -999 -999 -999
2011-01-21 08:40:50 51°11.511 2°38.169 14.3786 -999 -999 -999
2011-01-21 08:40:55 51°11.499 2°38.144 14.3705 -999 -999 -999
2011-01-21 08:41:00 51°11.487 2°38.118 14.3828 -999 -999 -999
2011-01-21 08:41:04 51°11.478 2°38.098 14.3517 -999 -999 -999
2011-01-21 08:41:10 51°11.464 2°38.067 14.3646 -999 -999 -999
2011-01-21 08:41:15 51°11.451 2°38.041 14.3555 -999 -999 -999
2011-01-21 08:41:20 51°11.44 2°38.015 14.3804 -999 -999 -999
2011-01-21 08:41:24 51°11.43 2°37.994 14.3738 -999 -999 -999
2011-01-21 08:41:30 51°11.416 2°37.963 14.3895 -999 -999 -999
2011-01-21 08:41:35 51°11.405 2°37.936 14.3769 -999 -999 -999
2011-01-21 08:41:40 51°11.393 2°37.91 14.3983 -999 -999 -999
2011-01-21 08:41:44 51°11.383 2°37.888 14.3787 -999 -999 -999
2011-01-21 08:41:50 51°11.369 2°37.857 14.3784 -999 -999 -999
2011-01-21 08:41:55 51°11.357 2°37.831 14.3864 -999 -999 -999
2011-01-21 08:42:00 51°11.346 2°37.805 14.4034 -999 -999 -999
2011-01-21 08:42:05 51°11.334 2°37.779 14.3705 -999 -999 -999
2011-01-21 08:42:10 51°11.323 2°37.752 14.4011 -999 -999 -999
2011-01-21 08:42:15 51°11.311 2°37.726 14.3421 -999 -999 -999
2011-01-21 08:42:20 51°11.299 2°37.699 14.4005 -999 -999 -999
2011-01-21 08:42:24 51°11.291 2°37.678 14.3778 -999 -999 -999
2011-01-21 08:42:30 51°11.277 2°37.647 14.4041 -999 -999 -999
2011-01-21 08:42:35 51°11.265 2°37.621 14.3964 -999 -999 -999
2011-01-21 08:42:40 51°11.252 2°37.595 14.3912 -999 -999 -999
2011-01-21 08:42:44 51°11.243 2°37.574 14.4036 -999 -999 -999
2011-01-21 08:42:50 51°11.229 2°37.543 14.386 -999 -999 -999
2011-01-21 08:42:55 51°11.217 2°37.517 14.4128 -999 -999 -999
2011-01-21 08:43:00 51°11.206 2°37.491 14.4168 -999 -999 -999
2011-01-21 08:43:04 51°11.196 2°37.47 14.4055 -999 -999 -999
2011-01-21 08:43:10 51°11.183 2°37.439 14.3992 -999 -999 -999
2011-01-21 08:43:15 51°11.171 2°37.413 14.3756 -999 -999 -999
2011-01-21 08:43:20 51°11.159 2°37.387 14.4291 -999 -999 -999
2011-01-21 08:43:25 51°11.148 2°37.361 14.3874 -999 -999 -999
2011-01-21 08:43:30 51°11.136 2°37.335 14.4181 -999 -999 -999
2011-01-21 08:43:35 51°11.125 2°37.309 14.3847 -999 -999 -999
2011-01-21 08:43:40 51°11.113 2°37.283 14.4235 -999 -999 -999
2011-01-21 08:43:44 51°11.104 2°37.262 14.3967 -999 -999 -999
2011-01-21 08:43:50 51°11.089 2°37.232 14.4198 -999 -999 -999
2011-01-21 08:43:55 51°11.078 2°37.205 14.3754 -999 -999 -999
2011-01-21 08:44:00 51°11.066 2°37.179 14.4228 -999 -999 -999
2011-01-21 08:44:05 51°11.055 2°37.153 14.3973 -999 -999 -999
2011-01-21 08:44:10 51°11.044 2°37.127 14.427 -999 -999 -999
2011-01-21 08:44:15 51°11.032 2°37.101 14.4156 -999 -999 -999
2011-01-21 08:44:20 51°11.021 2°37.075 14.4284 -999 -999 -999
2011-01-21 08:44:24 51°11.012 2°37.054 14.4144 -999 -999 -999
2011-01-21 08:44:30 51°10.998 2°37.023 14.4289 -999 -999 -999
2011-01-21 08:44:35 51°10.986 2°36.998 14.4361 -999 -999 -999
2011-01-21 08:44:40 51°10.974 2°36.972 14.4124 -999 -999 -999
2011-01-21 08:44:44 51°10.964 2°36.951 14.4437 -999 -999 -999
2011-01-21 08:44:50 51°10.95 2°36.92 14.4442 -999 -999 -999
2011-01-21 08:44:55 51°10.938 2°36.895 14.4214 -999 -999 -999
2011-01-21 08:45:00 51°10.925 2°36.871 14.4503 -999 -999 -999
2011-01-21 08:45:04 51°10.914 2°36.852 14.4515 -999 -999 -999
2011-01-21 08:45:10 51°10.897 2°36.825 14.4547 -999 -999 -999
2011-01-21 08:45:15 51°10.882 2°36.803 14.4604 -999 -999 -999
2011-01-21 08:45:20 51°10.867 2°36.783 14.4137 -999 -999 -999
2011-01-21 08:45:24 51°10.854 2°36.767 14.4393 -999 -999 -999
2011-01-21 08:45:30 51°10.835 2°36.743 14.4322 -999 -999 -999
2011-01-21 08:45:35 51°10.819 2°36.725 14.4458 -999 -999 -999
2011-01-21 08:45:40 51°10.802 2°36.706 14.4326 -999 -999 -999
2011-01-21 08:45:44 51°10.789 2°36.692 14.4276 -999 -999 -999
2011-01-21 08:45:50 51°10.769 2°36.67 14.4424 -999 -999 -999
2011-01-21 08:45:54 51°10.756 2°36.656 14.4395 -999 -999 -999
2011-01-21 08:46:00 51°10.736 2°36.635 14.4434 -999 -999 -999
2011-01-21 08:46:05 51°10.719 2°36.617 14.4427 -999 -999 -999
2011-01-21 08:46:10 51°10.702 2°36.599 14.4539 -999 -999 -999
2011-01-21 08:46:15 51°10.686 2°36.582 14.4447 -999 -999 -999
2011-01-21 08:46:20 51°10.668 2°36.566 14.469 -999 -999 -999
2011-01-21 08:46:24 51°10.654 2°36.553 14.4301 -999 -999 -999
2011-01-21 08:46:30 51°10.632 2°36.539 14.4639 -999 -999 -999
2011-01-21 08:46:35 51°10.614 2°36.526 14.4665 -999 -999 -999
2011-01-21 08:46:40 51°10.596 2°36.516 14.4718 -999 -999 -999
2011-01-21 08:46:45 51°10.577 2°36.506 14.4623 -999 -999 -999
2011-01-21 08:46:50 51°10.558 2°36.496 14.4557 -999 -999 -999
2011-01-21 08:46:55 51°10.539 2°36.489 14.4812 -999 -999 -999
2011-01-21 08:47:00 51°10.521 2°36.482 14.4749 -999 -999 -999
2011-01-21 08:47:04 51°10.505 2°36.479 14.4748 -999 -999 -999
2011-01-21 08:47:10 51°10.483 2°36.477 14.4712 -999 -999 -999
2011-01-21 08:47:15 51°10.464 2°36.479 14.467 -999 -999 -999
2011-01-21 08:47:20 51°10.445 2°36.482 14.4713 -999 -999 -999
2011-01-21 08:47:24 51°10.431 2°36.485 14.4931 -999 -999 -999
2011-01-21 08:47:29 51°10.413 2°36.491 14.4801 -999 -999 -999
2011-01-21 08:47:35 51°10.392 2°36.502 14.4711 -999 -999 -999
2011-01-21 08:47:40 51°10.374 2°36.512 14.46 -999 -999 -999
2011-01-21 08:47:44 51°10.36 2°36.521 14.4384 -999 -999 -999
2011-01-21 08:47:50 51°10.339 2°36.536 14.4506 -999 -999 -999
2011-01-21 08:47:55 51°10.321 2°36.549 14.4461 -999 -999 -999
2011-01-21 08:48:00 51°10.303 2°36.563 14.4361 -999 -999 -999
2011-01-21 08:48:05 51°10.285 2°36.575 14.4525 -999 -999 -999
2011-01-21 08:48:10 51°10.268 2°36.587 14.4764 -999 -999 -999
2011-01-21 08:48:15 51°10.25 2°36.6 14.4583 -999 -999 -999
2011-01-21 08:48:20 51°10.232 2°36.612 14.4761 -999 -999 -999
2011-01-21 08:48:24 51°10.218 2°36.622 14.4745 -999 -999 -999
2011-01-21 08:48:30 51°10.197 2°36.636 14.4732 -999 -999 -999
2011-01-21 08:48:35 51°10.179 2°36.647 14.4534 -999 -999 -999
2011-01-21 08:48:40 51°10.162 2°36.659 14.466 -999 -999 -999
2011-01-21 08:48:45 51°10.145 2°36.671 14.4613 -999 -999 -999
2011-01-21 08:48:50 51°10.127 2°36.683 14.4644 -999 -999 -999
2011-01-21 08:48:55 51°10.11 2°36.694 14.4631 -999 -999 -999
2011-01-21 08:49:00 51°10.092 2°36.705 14.4811 -999 -999 -999
2011-01-21 08:49:05 51°10.074 2°36.715 14.4819 -999 -999 -999
2011-01-21 08:49:10 51°10.056 2°36.725 14.4647 -999 -999 -999
2011-01-21 08:49:15 51°10.038 2°36.735 14.4697 -999 -999 -999
2011-01-21 08:49:20 51°10.02 2°36.745 14.4926 -999 -999 -999
2011-01-21 08:49:24 51°10.006 2°36.751 14.489 -999 -999 -999
2011-01-21 08:49:30 51°9.984 2°36.762 14.4612 -999 -999 -999
2011-01-21 08:49:35 51°9.965 2°36.769 14.5022 -999 -999 -999
2011-01-21 08:49:40 51°9.946 2°36.777 14.504 -999 -999 -999
2011-01-21 08:49:44 51°9.932 2°36.783 14.4862 -999 -999 -999
2011-01-21 08:49:50 51°9.911 2°36.794 14.4987 -999 -999 -999
2011-01-21 08:49:55 51°9.893 2°36.803 14.4897 -999 -999 -999
2011-01-21 08:50:00 51°9.875 2°36.813 14.4937 -999 -999 -999
2011-01-21 08:50:04 51°9.861 2°36.821 14.4906 -999 -999 -999
2011-01-21 08:50:10 51°9.84 2°36.833 14.5047 -999 -999 -999
2011-01-21 08:50:15 51°9.823 2°36.843 14.4742 -999 -999 -999
2011-01-21 08:50:20 51°9.805 2°36.853 14.5054 -999 -999 -999
2011-01-21 08:50:24 51°9.791 2°36.86 14.4837 -999 -999 -999
2011-01-21 08:50:30 51°9.77 2°36.872 14.4879 -999 -999 -999
2011-01-21 08:50:34 51°9.756 2°36.88 14.4976 -999 -999 -999
2011-01-21 08:50:40 51°9.735 2°36.891 14.4995 -999 -999 -999
2011-01-21 08:50:45 51°9.717 2°36.9 14.517 -999 -999 -999
2011-01-21 08:50:50 51°9.699 2°36.909 14.5061 -999 -999 -999
2011-01-21 08:50:55 51°9.681 2°36.919 14.458 -999 -999 -999
2011-01-21 08:51:00 51°9.663 2°36.927 14.4664 -999 -999 -999
2011-01-21 08:51:04 51°9.649 2°36.932 14.476 -999 -999 -999
2011-01-21 08:51:10 51°9.626 2°36.937 14.4756 -999 -999 -999
2011-01-21 08:51:15 51°9.607 2°36.939 14.4595 -999 -999 -999
2011-01-21 08:51:20 51°9.588 2°36.938 14.4279 -999 -999 -999
2011-01-21 08:51:24 51°9.573 2°36.935 14.4702 -999 -999 -999
2011-01-21 08:51:30 51°9.55 2°36.927 14.4499 -999 -999 -999
2011-01-21 08:51:35 51°9.531 2°36.918 14.4792 -999 -999 -999
2011-01-21 08:51:40 51°9.514 2°36.904 14.5192 -999 -999 -999
2011-01-21 08:51:44 51°9.5 2°36.893 14.4657 -999 -999 -999
2011-01-21 08:51:50 51°9.479 2°36.874 14.5216 -999 -999 -999
2011-01-21 08:51:55 51°9.462 2°36.857 14.5074 -999 -999 -999
2011-01-21 08:52:00 51°9.446 2°36.838 14.477 -999 -999 -999
2011-01-21 08:52:04 51°9.433 2°36.822 14.5146 -999 -999 -999
2011-01-21 08:52:09 51°9.417 2°36.802 14.496 -999 -999 -999
2011-01-21 08:52:15 51°9.4 2°36.773 14.5314 -999 -999 -999
2011-01-21 08:52:20 51°9.387 2°36.749 14.4935 -999 -999 -999
2011-01-21 08:52:24 51°9.377 2°36.729 14.5258 -999 -999 -999
2011-01-21 08:52:30 51°9.362 2°36.699 14.5062 -999 -999 -999
2011-01-21 08:52:35 51°9.351 2°36.672 14.5123 -999 -999 -999
2011-01-21 08:52:40 51°9.341 2°36.644 14.5193 -999 -999 -999
2011-01-21 08:52:45 51°9.331 2°36.615 14.5349 -999 -999 -999
2011-01-21 08:52:50 51°9.322 2°36.586 14.4882 -999 -999 -999
2011-01-21 08:52:55 51°9.312 2°36.558 14.5062 -999 -999 -999
2011-01-21 08:53:00 51°9.304 2°36.528 14.5395 -999 -999 -999
2011-01-21 08:53:04 51°9.297 2°36.504 14.548 -999 -999 -999
2011-01-21 08:53:10 51°9.288 2°36.468 14.5323 -999 -999 -999
2011-01-21 08:53:15 51°9.28 2°36.438 14.5418 -999 -999 -999
2011-01-21 08:53:20 51°9.273 2°36.407 14.5173 -999 -999 -999
2011-01-21 08:53:25 51°9.265 2°36.377 14.5289 -999 -999 -999
2011-01-21 08:53:30 51°9.257 2°36.347 14.5243 -999 -999 -999
2011-01-21 08:53:35 51°9.249 2°36.317 14.5497 -999 -999 -999
2011-01-21 08:53:40 51°9.24 2°36.287 14.5188 -999 -999 -999
2011-01-21 08:53:45 51°9.232 2°36.258 14.5518 -999 -999 -999
2011-01-21 08:53:50 51°9.223 2°36.228 14.5356 -999 -999 -999
2011-01-21 08:53:55 51°9.213 2°36.199 14.532 -999 -999 -999
2011-01-21 08:54:00 51°9.203 2°36.171 14.5289 -999 -999 -999
2011-01-21 08:54:04 51°9.195 2°36.148 14.5371 -999 -999 -999
2011-01-21 08:54:10 51°9.182 2°36.114 14.5244 -999 -999 -999
2011-01-21 08:54:15 51°9.171 2°36.085 14.5427 -999 -999 -999
2011-01-21 08:54:20 51°9.161 2°36.057 14.529 -999 -999 -999
2011-01-21 08:54:24 51°9.152 2°36.034 14.5402 -999 -999 -999
2011-01-21 08:54:30 51°9.14 2°36 14.547 -999 -999 -999
2011-01-21 08:54:35 51°9.129 2°35.972 14.5423 -999 -999 -999
2011-01-21 08:54:40 51°9.119 2°35.943 14.5563 -999 -999 -999
2011-01-21 08:54:45 51°9.109 2°35.914 14.5303 -999 -999 -999
2011-01-21 08:54:50 51°9.098 2°35.886 14.5497 -999 -999 -999
2011-01-21 08:54:55 51°9.088 2°35.856 14.5507 -999 -999 -999
2011-01-21 08:55:00 51°9.077 2°35.828 14.5586 -999 -999 -999
2011-01-21 08:55:05 51°9.067 2°35.799 14.5518 -999 -999 -999
2011-01-21 08:55:10 51°9.057 2°35.771 14.5543 -999 -999 -999
2011-01-21 08:55:15 51°9.046 2°35.741 14.5672 -999 -999 -999
2011-01-21 08:55:20 51°9.036 2°35.712 14.5529 -999 -999 -999
2011-01-21 08:55:24 51°9.028 2°35.689 14.5374 -999 -999 -999
2011-01-21 08:55:30 51°9.016 2°35.655 14.5633 -999 -999 -999
2011-01-21 08:55:35 51°9.006 2°35.626 14.5473 -999 -999 -999
2011-01-21 08:55:40 51°8.995 2°35.597 14.5457 -999 -999 -999
2011-01-21 08:55:44 51°8.987 2°35.574 14.5781 -999 -999 -999
2011-01-21 08:55:50 51°8.975 2°35.539 14.5267 -999 -999 -999
2011-01-21 08:55:55 51°8.964 2°35.51 14.5765 -999 -999 -999
2011-01-21 08:56:00 51°8.954 2°35.481 14.5602 -999 -999 -999
2011-01-21 08:56:04 51°8.945 2°35.458 14.528 -999 -999 -999
2011-01-21 08:56:10 51°8.933 2°35.424 14.5641 -999 -999 -999
2011-01-21 08:56:15 51°8.922 2°35.395 14.5648 -999 -999 -999
2011-01-21 08:56:20 51°8.912 2°35.366 14.5507 -999 -999 -999
2011-01-21 08:56:24 51°8.904 2°35.343 14.5756 -999 -999 -999
2011-01-21 08:56:29 51°8.894 2°35.313 14.5827 -999 -999 -999
2011-01-21 08:56:35 51°8.882 2°35.278 14.5844 -999 -999 -999
2011-01-21 08:56:40 51°8.872 2°35.249 14.5402 -999 -999 -999
2011-01-21 08:56:44 51°8.863 2°35.226 14.5749 -999 -999 -999
2011-01-21 08:56:49 51°8.853 2°35.196 14.5767 -999 -999 -999
2011-01-21 08:56:55 51°8.841 2°35.162 14.5603 -999 -999 -999
2011-01-21 08:57:00 51°8.831 2°35.132 14.5744 -999 -999 -999
2011-01-21 08:57:04 51°8.822 2°35.109 14.5798 -999 -999 -999
2011-01-21 08:57:10 51°8.81 2°35.074 14.5629 -999 -999 -999
2011-01-21 08:57:14 51°8.802 2°35.051 14.5859 -999 -999 -999
2011-01-21 08:57:20 51°8.79 2°35.016 14.5741 -999 -999 -999
2011-01-21 08:57:25 51°8.78 2°34.987 14.5804 -999 -999 -999
2011-01-21 08:57:30 51°8.769 2°34.958 14.5749 -999 -999 -999
2011-01-21 08:57:35 51°8.759 2°34.929 14.6019 -999 -999 -999
2011-01-21 08:57:40 51°8.748 2°34.9 14.5643 -999 -999 -999
2011-01-21 08:57:44 51°8.74 2°34.877 14.5916 -999 -999 -999
2011-01-21 08:57:50 51°8.727 2°34.841 14.5995 -999 -999 -999
2011-01-21 08:57:55 51°8.717 2°34.812 14.5871 -999 -999 -999
2011-01-21 08:58:00 51°8.707 2°34.782 14.5797 -999 -999 -999
2011-01-21 08:58:04 51°8.699 2°34.759 14.5818 -999 -999 -999
2011-01-21 08:58:10 51°8.687 2°34.724 14.6028 -999 -999 -999
2011-01-21 08:58:15 51°8.677 2°34.694 14.5814 -999 -999 -999
2011-01-21 08:58:20 51°8.666 2°34.665 14.6017 -999 -999 -999
2011-01-21 08:58:24 51°8.658 2°34.642 14.6022 -999 -999 -999
2011-01-21 08:58:30 51°8.646 2°34.607 14.5706 -999 -999 -999
2011-01-21 08:58:35 51°8.635 2°34.578 14.6047 -999 -999 -999
2011-01-21 08:58:40 51°8.625 2°34.549 14.6064 -999 -999 -999
2011-01-21 08:58:44 51°8.617 2°34.527 14.5906 -999 -999 -999
2011-01-21 08:58:49 51°8.606 2°34.497 14.5807 -999 -999 -999
2011-01-21 08:58:55 51°8.594 2°34.462 14.6164 -999 -999 -999
2011-01-21 08:59:00 51°8.584 2°34.433 14.5797 -999 -999 -999
2011-01-21 08:59:04 51°8.575 2°34.41 14.6128 -999 -999 -999
2011-01-21 08:59:10 51°8.564 2°34.375 14.5822 -999 -999 -999
2011-01-21 08:59:14 51°8.555 2°34.352 14.5977 -999 -999 -999
2011-01-21 08:59:20 51°8.542 2°34.317 14.6185 -999 -999 -999
2011-01-21 08:59:25 51°8.532 2°34.289 14.5781 -999 -999 -999
2011-01-21 08:59:30 51°8.521 2°34.26 14.6105 -999 -999 -999
2011-01-21 08:59:35 51°8.511 2°34.23 14.6151 -999 -999 -999
2011-01-21 08:59:40 51°8.501 2°34.201 14.6247 -999 -999 -999
2011-01-21 08:59:44 51°8.493 2°34.178 14.5946 -999 -999 -999
2011-01-21 08:59:50 51°8.481 2°34.143 14.6247 -999 -999 -999
2011-01-21 08:59:55 51°8.471 2°34.113 14.6126 -999 -999 -999
2011-01-21 09:00:00 51°8.461 2°34.084 14.6097 -999 -999 -999
2011-01-21 09:00:05 51°8.451 2°34.054 14.6112 -999 -999 -999
2011-01-21 09:00:10 51°8.441 2°34.025 14.6039 -999 -999 -999
2011-01-21 09:00:15 51°8.431 2°33.996 14.6326 -999 -999 -999
2011-01-21 09:00:20 51°8.421 2°33.966 14.6393 -999 -999 -999
2011-01-21 09:00:25 51°8.411 2°33.937 14.6375 -999 -999 -999
2011-01-21 09:00:30 51°8.401 2°33.908 14.6387 -999 -999 -999
2011-01-21 09:00:35 51°8.391 2°33.879 14.6102 -999 -999 -999
2011-01-21 09:00:40 51°8.381 2°33.849 14.634 -999 -999 -999
2011-01-21 09:00:44 51°8.373 2°33.826 14.6017 -999 -999 -999
2011-01-21 09:00:50 51°8.361 2°33.791 14.6224 -999 -999 -999
2011-01-21 09:00:55 51°8.35 2°33.762 14.5923 -999 -999 -999
2011-01-21 09:01:00 51°8.34 2°33.733 14.6299 -999 -999 -999
2011-01-21 09:01:04 51°8.332 2°33.71 14.6185 -999 -999 -999
2011-01-21 09:01:10 51°8.32 2°33.675 14.6306 -999 -999 -999
2011-01-21 09:01:15 51°8.31 2°33.645 14.6274 -999 -999 -999
2011-01-21 09:01:20 51°8.3 2°33.616 14.6143 -999 -999 -999
2011-01-21 09:01:24 51°8.292 2°33.593 14.6303 -999 -999 -999
2011-01-21 09:01:30 51°8.281 2°33.557 14.627 -999 -999 -999
2011-01-21 09:01:35 51°8.271 2°33.528 14.6086 -999 -999 -999
2011-01-21 09:01:40 51°8.261 2°33.499 14.6576 -999 -999 -999
2011-01-21 09:01:44 51°8.253 2°33.476 14.6003 -999 -999 -999
2011-01-21 09:01:50 51°8.241 2°33.441 14.6403 -999 -999 -999
2011-01-21 09:01:55 51°8.231 2°33.412 14.6331 -999 -999 -999
2011-01-21 09:02:00 51°8.22 2°33.383 14.6275 -999 -999 -999
2011-01-21 09:02:04 51°8.212 2°33.36 14.6373 -999 -999 -999
2011-01-21 09:02:10 51°8.2 2°33.325 14.656 -999 -999 -999
2011-01-21 09:02:15 51°8.19 2°33.296 14.6159 -999 -999 -999
2011-01-21 09:02:20 51°8.179 2°33.267 14.6424 -999 -999 -999
2011-01-21 09:02:24 51°8.171 2°33.244 14.6608 -999 -999 -999
2011-01-21 09:02:30 51°8.159 2°33.209 14.6426 -999 -999 -999